Weather History for Moncks Corner, SC

Change the Weather History Date:

Saturday, January 11, 2014

  Actual Average (KCHS) Record (KCHS)
Temperature  
Mean Temperature 66 °F 48 °F  
Max Temperature 73 °F 59 °F 82 °F (1949)
Min Temperature 60 °F 37 °F 10 °F (1982)
Degree Days  
Heating Degree Days 0 17  
Month to date heating degree days 187  
Since 1 July heating degree days 925  
Cooling Degree Days 2 0  
Month to date cooling degree days 0  
Year to date cooling degree days 0  
Growing Degree Days 16 (Base 50)    
Moisture  
Dew Point 66 °F    
Average Humidity 97    
Maximum Humidity 100    
Minimum Humidity 83    
Precipitation  
Precipitation 0.59 in 0.12 in 0.93 in (1991)
Month to date precipitation 1.28  
Year to date precipitation 1.28  
Sea Level Pressure  
Sea Level Pressure 29.87 in    
Wind  
Wind Speed 8 mph (SW)    
Max Wind Speed 22 mph    
Max Gust Speed 30 mph    
Visibility 9 miles    
Events Rain , Thunderstorm    
T = Trace of Precipitation, MM = Missing Value Source: NWS Daily Summary

Daily Weather History Graph

Daily Weather History Graph

Search for Another Location

Airport:

Trip Planner

Search our weather history database for the weather conditions in past years. The results will help you decide how hot, cold, wet, or windy it might be!

Date:

Astronomy

Jan. 11, 2014 Rise Set
Actual Time 7:24 AM EST 5:32 PM EST
Civil Twilight 6:57 AM EST 5:59 PM EST
Nautical Twilight 6:26 AM EST 6:29 PM EST
Astronomical Twilight 5:56 AM EST 6:59 PM EST
Moon 2:13 PM EST (1/11) 3:30 AM EST (1/11)
Length of Visible Light 11h 02m
Length of Day
10h 08m
Waxing Gibbous, 83% of the Moon is Illuminated
Jan 11
Waxing Gibbous
Jan 15
Full
Jan 24
Last Quarter
Jan 30
New
Feb 6
First Quarter

Hourly Weather History & Observations

Time (EST) Temp. Dew Point Humidity Pressure Visibility Wind Dir Wind Speed Gust Speed Precip Events Conditions
12:15 AM 60.8 °F 60.8 °F 100% 30.07 in 7.0 mi Calm Calm - N/A   Clear
12:35 AM 60.8 °F 60.8 °F 100% 30.06 in 7.0 mi Calm Calm - N/A   Mostly Cloudy
12:55 AM 60.8 °F 60.8 °F 100% 30.05 in 5.0 mi Calm Calm - N/A   Overcast
1:15 AM 60.8 °F 60.8 °F 100% 30.05 in 5.0 mi Calm Calm - N/A   Overcast
1:35 AM 62.6 °F 62.6 °F 100% 30.05 in 7.0 mi Calm Calm - N/A   Overcast
1:55 AM 62.6 °F 62.6 °F 100% 30.04 in 7.0 mi Calm Calm - N/A   Overcast
2:15 AM 64.4 °F 64.4 °F 100% 30.03 in 7.0 mi Calm Calm - N/A   Overcast
2:35 AM 64.4 °F 64.4 °F 100% 30.02 in 7.0 mi South 4.6 mph - N/A   Overcast
2:55 AM 66.2 °F 66.2 °F 100% 30.01 in 7.0 mi SSW 8.1 mph - N/A   Overcast
3:15 AM 66.2 °F 66.2 °F 100% 30.01 in 7.0 mi SSW 6.9 mph - N/A   Overcast
3:35 AM 66.2 °F 66.2 °F 100% 30.00 in 10.0 mi SSW 6.9 mph - N/A   Overcast
3:55 AM 66.2 °F 66.2 °F 100% 30.00 in 7.0 mi SSW 11.5 mph 16.1 mph N/A   Overcast
4:15 AM 68.0 °F 68.0 °F 100% 29.99 in 7.0 mi SSW 9.2 mph 16.1 mph N/A   Overcast
4:35 AM 68.0 °F 68.0 °F 100% 29.98 in 10.0 mi SSW 9.2 mph - N/A   Overcast
4:55 AM 68.0 °F 68.0 °F 100% 29.98 in 7.0 mi SSW 9.2 mph 18.4 mph N/A   Overcast
5:15 AM 68.0 °F 68.0 °F 100% 29.98 in 7.0 mi SSW 9.2 mph 16.1 mph N/A   Overcast
5:35 AM 68.0 °F 68.0 °F 100% 29.98 in 10.0 mi SSW 10.4 mph - N/A   Overcast
5:55 AM 68.0 °F 68.0 °F 100% 29.97 in 7.0 mi SSW 10.4 mph - N/A   Overcast
6:15 AM 68.0 °F 68.0 °F 100% 29.97 in 10.0 mi SSW 9.2 mph - N/A   Overcast
6:35 AM 68.0 °F 68.0 °F 100% 29.96 in 10.0 mi SSW 11.5 mph - N/A   Overcast
6:55 AM 68.0 °F 68.0 °F 100% 29.96 in 10.0 mi South 11.5 mph 17.3 mph N/A   Overcast
7:15 AM 68.0 °F 68.0 °F 100% 29.95 in 10.0 mi SSW 11.5 mph - N/A   Overcast
7:35 AM 68.0 °F 68.0 °F 100% 29.95 in 10.0 mi SSW 11.5 mph - N/A   Overcast
7:55 AM 69.8 °F 68.0 °F 94% 29.95 in 10.0 mi SSW 11.5 mph 23.0 mph N/A   Overcast
8:15 AM 69.8 °F 68.0 °F 94% 29.96 in 10.0 mi SSW 9.2 mph - N/A   Overcast
8:35 AM 69.8 °F 68.0 °F 94% 29.95 in 10.0 mi SSW 9.2 mph 17.3 mph N/A   Overcast
8:55 AM 69.8 °F 68.0 °F 94% 29.95 in 4.0 mi SSW 13.8 mph 21.9 mph N/A   Overcast
9:15 AM 69.8 °F 69.8 °F 100% 29.95 in 7.0 mi SSW 15.0 mph 21.9 mph N/A   Overcast
9:35 AM 71.6 °F 69.8 °F 94% 29.95 in 7.0 mi SSW 13.8 mph 21.9 mph N/A   Overcast
9:55 AM 71.6 °F 69.8 °F 94% 29.94 in 10.0 mi SSW 13.8 mph 18.4 mph N/A   Overcast
10:15 AM 71.6 °F 69.8 °F 94% 29.93 in 7.0 mi SSW 12.7 mph 18.4 mph N/A   Overcast
10:35 AM 71.6 °F 69.8 °F 94% 29.92 in 7.0 mi South 12.7 mph 19.6 mph N/A   Overcast
10:55 AM 71.6 °F 69.8 °F 94% 29.91 in 7.0 mi SSW 13.8 mph 21.9 mph N/A   Overcast
11:15 AM 71.6 °F 69.8 °F 94% 29.89 in 10.0 mi SSW 19.6 mph 27.6 mph N/A   Overcast
11:35 AM 71.6 °F 69.8 °F 94% 29.87 in 10.0 mi SSW 19.6 mph 25.3 mph N/A   Overcast
11:55 AM 71.6 °F 69.8 °F 94% 29.86 in 10.0 mi SSW 13.8 mph 26.5 mph N/A   Overcast
12:15 PM 73.4 °F 69.8 °F 88% 29.85 in 7.0 mi SSW 15.0 mph 26.5 mph N/A   Overcast
12:35 PM 73.4 °F 69.8 °F 88% 29.83 in 10.0 mi SW 16.1 mph 26.5 mph N/A Thunderstorm Overcast
12:55 PM 73.4 °F 68.0 °F 83% 29.82 in 10.0 mi SW 21.9 mph 29.9 mph N/A   Mostly Cloudy
1:15 PM 71.6 °F 68.0 °F 88% 29.80 in 10.0 mi SW 15.0 mph 23.0 mph N/A   Overcast
1:35 PM 71.6 °F 68.0 °F 88% 29.79 in 10.0 mi SW 16.1 mph 23.0 mph N/A   Overcast
1:55 PM 71.6 °F 68.0 °F 88% 29.78 in 10.0 mi SSW 12.7 mph 20.7 mph N/A Rain Light Rain
2:15 PM 71.6 °F 68.0 °F 88% 29.76 in 10.0 mi SW 17.3 mph 23.0 mph N/A   Overcast
2:35 PM 71.6 °F 68.0 °F 88% 29.75 in 10.0 mi SSW 16.1 mph 21.9 mph N/A   Overcast
2:55 PM 71.6 °F 68.0 °F 88% 29.75 in 7.0 mi SSW 18.4 mph 24.2 mph N/A   Overcast
3:15 PM 69.8 °F 68.0 °F 94% 29.75 in 10.0 mi SW 13.8 mph 23.0 mph N/A   Overcast
3:35 PM 71.6 °F 68.0 °F 88% 29.74 in 7.0 mi SW 12.7 mph 19.6 mph N/A   Overcast
3:55 PM 69.8 °F 68.0 °F 94% 29.74 in 10.0 mi SW 18.4 mph 24.2 mph N/A   Overcast
4:15 PM 69.8 °F 68.0 °F 94% 29.74 in 10.0 mi SSW 9.2 mph - N/A Rain Light Rain
4:35 PM 69.8 °F 68.0 °F 94% 29.77 in 7.0 mi WSW 13.8 mph 28.8 mph 0.03 in Rain , Thunderstorm Heavy Thunderstorms and Rain
4:55 PM 62.6 °F 62.6 °F 100% 29.76 in 3.0 mi WSW 13.8 mph 23.0 mph 0.43 in Rain , Thunderstorm Heavy Thunderstorms and Rain
5:15 PM 62.6 °F 62.6 °F 100% 29.75 in 7.0 mi WSW 8.1 mph - 0.04 in Rain , Thunderstorm Rain
5:35 PM 62.6 °F 62.6 °F 100% 29.76 in 7.0 mi SW 8.1 mph - 0.09 in Rain Rain
5:55 PM 62.6 °F 62.6 °F 100% 29.75 in 10.0 mi SSW 8.1 mph - 0.14 in Rain Rain
6:15 PM 62.6 °F 62.6 °F 100% 29.74 in 10.0 mi SW 6.9 mph - 0.01 in Rain , Thunderstorm Light Thunderstorms and Rain
6:35 PM 62.6 °F 62.6 °F 100% 29.76 in 10.0 mi SW 8.1 mph - 0.01 in   Overcast
6:55 PM 62.6 °F 62.6 °F 100% 29.75 in 10.0 mi SSW 8.1 mph - 0.01 in   Overcast
7:15 PM 62.6 °F 62.6 °F 100% 29.76 in 10.0 mi SW 6.9 mph - N/A   Overcast
7:35 PM 62.6 °F 62.6 °F 100% 29.76 in 10.0 mi WSW 4.6 mph - N/A   Mostly Cloudy
7:55 PM 62.6 °F 62.6 °F 100% 29.76 in 10.0 mi SW 6.9 mph - N/A   Mostly Cloudy
8:15 PM 62.6 °F 62.6 °F 100% 29.76 in 10.0 mi WSW 8.1 mph - N/A   Overcast
8:35 PM 62.6 °F 62.6 °F 100% 29.77 in 10.0 mi WSW 9.2 mph - 0.01 in   Overcast
8:55 PM 62.6 °F 62.6 °F 100% 29.77 in 10.0 mi SW 6.9 mph - 0.01 in   Overcast
9:15 PM 62.6 °F 62.6 °F 100% 29.77 in 10.0 mi SW 8.1 mph - N/A   Overcast
9:35 PM 62.6 °F 62.6 °F 100% 29.77 in 10.0 mi WSW 6.9 mph - N/A   Overcast
9:55 PM 62.6 °F 62.6 °F 100% 29.77 in 7.0 mi WSW 6.9 mph - N/A   Overcast
10:15 PM 62.6 °F 62.6 °F 100% 29.77 in 10.0 mi WSW 9.2 mph - N/A   Overcast
10:35 PM 62.6 °F 62.6 °F 100% 29.77 in 10.0 mi WSW 5.8 mph - N/A   Overcast
10:55 PM 62.6 °F 60.8 °F 94% 29.77 in 10.0 mi WSW 6.9 mph - N/A   Overcast
11:15 PM 62.6 °F 60.8 °F 94% 29.77 in 7.0 mi WSW 5.8 mph - N/A   Overcast
11:35 PM 62.6 °F 60.8 °F 94% 29.79 in 10.0 mi WSW 6.9 mph - N/A   Overcast
11:55 PM 62.6 °F 60.8 °F 94% 29.80 in 10.0 mi WSW 5.8 mph - N/A   Overcast